[[{"header":{"parameterUnit":"m.s-1","parameterCategory":1,"la1":30.2991,"la2":30.254,"lo1":-89.0895,"lo2":-89.0444,"dy":0.0017,"dx":0.0017,"nx":28,"ny":28,"refTime":"2025-11-27T09:00:00:Z","depth":0,"parameterNumber":2,"parameterNumberName":"U-component_of_WINDS"},"data":[0,0,0,0,0,0,0,0,0,0,0,0,0,0,0,0,0,0,0,0,0,0,0,0,0,0,0,0,0,0,0,0,0,0,0,0,0,0,0,0,0,0,0,0,0,0,0,0,0,0,0,0,0,0,0,0,0,0,0.5437,0.5437,0,0.5427,0.5427,0.5427,0.5436,0.5436,0.5437,0.5437,0.5425,0.5424,0.5424,0,0,0,0,0,0,0,0,0,0,0,0,0,0.5462,0.5462,0.5437,0.5437,0.5437,0.5427,0.5427,0.5427,0.5436,0.5436,0.5437,0.5437,0.5425,0.5425,0.5424,0,0,0,0,0,0,0,0,0,0,0,0,0,0.5452,0.5462,0.5437,0.544,0.544,0.5427,0.5427,0.5427,0.5436,0.5436,0.5437,0.5437,0.5426,0.5425,0.5424,0.5407,0,0,0.5421,0.542,0,0,0,0,0,0,0,0,0.5452,0.5451,0.544,0.544,0.544,0.5433,0.5432,0.542,0.5436,0.5437,0.5437,0.5437,0.5427,0.5426,0.5423,0.5406,0.5406,0.5421,0.542,0.542,0.5419,0,0,0,0,0,0,0,0.5453,0.5451,0.5433,0.544,0.544,0.5442,0.5441,0.543,0.5429,0.5437,0.5438,0.5437,0.5427,0.5424,0.5423,0.5406,0.5421,0.542,0.5419,0.5419,0.5376,0.5376,0,0,0,0,0,0,0.5454,0.5452,0.5434,0.5433,0.5448,0.5441,0.544,0.5435,0.543,0.5429,0.5436,0.5437,0.5425,0.5424,0.5423,0.5403,0.542,0.5419,0.5418,0.5377,0.5376,0.5375,0,0,0,0,0,0,0.5454,0.5452,0.5434,0.5443,0.544,0.544,0.5434,0.5434,0.5431,0.5429,0.5429,0.5433,0.5426,0.5424,0.5411,0.5403,0.5418,0.5417,0.5377,0.5376,0.5376,0.5364,0,0,0,0,0,0,0.5455,0.5452,0.5446,0.5442,0.544,0.5423,0.5434,0.5434,0.543,0.5431,0.5426,0.5425,0.5426,0.5413,0.541,0.5402,0.5417,0.5378,0.5377,0.5376,0.5365,0.5363,0.5361,0,0,0,0,0,0.5456,0.5442,0.5445,0.5443,0.5432,0.5422,0.5421,0.5422,0.5429,0.5422,0.5421,0.5425,0.5404,0.5411,0.5409,0.54,0.5378,0.5377,0.5376,0.5366,0.5363,0.5361,0,0,0,0,0,0,0.5443,0.5442,0.5445,0.543,0.5426,0.5424,0.5415,0.5419,0.5413,0.5414,0.5416,0.5415,0.5402,0.54,0.5407,0.5384,0.5392,0.5391,0.5386,0.5383,0.5381,0.5381,0.5416,0,0,0,0,0,0.5439,0.5431,0.543,0.5417,0.5415,0.5416,0.5411,0.5413,0.5409,0.5407,0.5405,0.5401,0.5393,0.5388,0.5381,0.5365,0.5364,0.5358,0.5356,0.5354,0.5352,0.5344,0.5342,0.5371,0.5371,0.5371,0,0,0.5429,0.5428,0.5422,0.5415,0.5412,0.5404,0.5414,0.5405,0.5399,0.5406,0.5394,0.5392,0.5388,0.5373,0.5367,0.5371,0.5344,0.5353,0.5351,0.535,0.5343,0.534,0.5337,0.537,0.5371,0.5371,0,0,0.5408,0.5406,0.5395,0.5393,0.5389,0.539,0.5387,0.5384,0.5384,0.5372,0.5378,0.5371,0.5358,0.5354,0.5351,0.5331,0.5334,0.5328,0.5317,0.5309,0.5307,0.5305,0.5298,0.5295,0.5327,0.5327,0.5327,0,0.5396,0.5385,0.5389,0.538,0.5376,0.5384,0.5373,0.537,0.5364,0.5361,0.5366,0.5351,0.5348,0.5334,0.5329,0.5326,0.5323,0.5328,0.5307,0.5305,0.5303,0.5296,0.5294,0.5326,0.5326,0.5326,0.5326,0,0.5371,0.5363,0.5355,0.535,0.5345,0.5335,0.5338,0.5333,0.5336,0.5337,0.5325,0.5323,0.5316,0.5313,0.5315,0.5299,0.5301,0.5307,0.5315,0.5299,0.5293,0.529,0.5325,0.5325,0.5325,0.5326,0,0,0.5339,0.5338,0.5335,0.5333,0.5331,0.5325,0.5316,0.531,0.5306,0.5302,0.5294,0.5284,0.529,0.5286,0.5288,0.5281,0.5266,0.5288,0.5288,0.5284,0.5249,0.5244,0.5241,0.5269,0.5269,0.5268,0.5249,0,0.5317,0.5302,0.5306,0.529,0.5283,0.5291,0.5284,0.5281,0.5282,0.5276,0.5277,0.527,0.5277,0.5275,0.5269,0.5269,0.5259,0.5271,0.5262,0.5261,0.5262,0.5237,0.5232,0.5214,0.5246,0.5246,0.5246,0,0.5289,0.5286,0.527,0.527,0.5267,0.526,0.5255,0.525,0.5248,0.5249,0.5246,0.525,0.5241,0.5251,0.5239,0.5247,0.5244,0.5244,0.5243,0.5241,0.5252,0.5235,0.5208,0.5205,0.5242,0.5242,0.5242,0,0.5267,0.5259,0.5248,0.5246,0.5246,0.5241,0.5241,0.5239,0.5236,0.5232,0.523,0.5226,0.5223,0.5219,0.5222,0.5229,0.521,0.5219,0.521,0.521,0.5204,0.5205,0.5176,0.5204,0.5204,0.5204,0.5204,0,0.5242,0.5232,0.5238,0.5232,0.5221,0.5227,0.5216,0.5216,0.5215,0.5209,0.5216,0.521,0.5215,0.5209,0.5212,0.5202,0.52,0.5201,0.5201,0.52,0.5199,0.5197,0.5198,0.5203,0.5203,0.5203,0.5204,0,0.5215,0.5219,0.5208,0.521,0.521,0.5202,0.5203,0.5197,0.5199,0.5191,0.519,0.5193,0.5187,0.519,0.5184,0.5186,0.5173,0.5175,0.5173,0.5174,0.5164,0.5165,0.5132,0.5128,0.5159,0.5159,0.5158,0,0.5198,0.5191,0.5192,0.5189,0.5188,0.5183,0.518,0.5186,0.5182,0.5181,0.5175,0.517,0.5166,0.5157,0.5158,0.5154,0.5156,0.5145,0.5155,0.5154,0.5155,0.5155,0.5155,0.5142,0.5142,0.5142,0.5141,0,0.5168,0.5171,0.5166,0.5163,0.516,0.5158,0.5156,0.5153,0.5159,0.5155,0.515,0.5147,0.5141,0.5136,0.5133,0.5132,0.5138,0.5139,0.5136,0.5134,0.5133,0.5133,0.5167,0.5139,0.5139,0.5139,0.5139,0.5139,0.5145,0.5139,0.5139,0.5135,0.5135,0.5133,0.5128,0.5131,0.5126,0.5123,0.5127,0.512,0.512,0.5116,0.5115,0.511,0.5115,0.5111,0.511,0.5109,0.5108,0.5135,0.511,0.511,0.511,0.511,0.511,0,0.5114,0.5116,0.5112,0.511,0.5107,0.5114,0.5112,0.5109,0.5104,0.5103,0.51,0.5094,0.509,0.5092,0.5088,0.5084,0.5087,0.5083,0.5083,0.5083,0.5104,0.5106,0.5081,0.5081,0.5081,0.5081,0.5081,0.5081,0.5098,0.5089,0.5092,0.5083,0.5085,0.5079,0.5078,0.5077,0.5077,0.507,0.5067,0.5069,0.507,0.5067,0.5063,0.5064,0.5062,0.5057,0.5059,0.5078,0.5081,0.5084,0.5086,0.5057,0.5057,0.5038,0.5038,0.5038]},{"header":{"parameterUnit":"m.s-1","parameterCategory":1,"la1":30.2991,"la2":30.254,"lo1":-89.0895,"lo2":-89.0444,"dy":0.0017,"dx":0.0017,"nx":28,"ny":28,"refTime":"2025-11-27T09:00:00:Z","depth":0,"parameterNumber":3,"parameterNumberName":"V-component_of_WINDS"},"data":[0,0,0,0,0,0,0,0,0,0,0,0,0,0,0,0,0,0,0,0,0,0,0,0,0,0,0,0,0,0,0,0,0,0,0,0,0,0,0,0,0,0,0,0,0,0,0,0,0,0,0,0,0,0,0,0,0,0,-6.0669,-6.067,0,-6.0821,-6.0822,-6.0824,-6.0756,-6.0752,-6.0749,-6.0745,-6.0894,-6.0902,-6.0909,0,0,0,0,0,0,0,0,0,0,0,0,0,-6.0313,-6.032,-6.0668,-6.067,-6.0672,-6.082,-6.0822,-6.0824,-6.0757,-6.0752,-6.0748,-6.0743,-6.0892,-6.0901,-6.091,0,0,0,0,0,0,0,0,0,0,0,0,0,-6.0466,-6.0322,-6.0668,-6.0657,-6.0657,-6.082,-6.0822,-6.0825,-6.0758,-6.0752,-6.0746,-6.0741,-6.0889,-6.09,-6.0911,-6.1092,0,0,-6.0945,-6.095,0,0,0,0,0,0,0,0,-6.0458,-6.0479,-6.0656,-6.0658,-6.0658,-6.0764,-6.0752,-6.0914,-6.0759,-6.0719,-6.0745,-6.0738,-6.0855,-6.0869,-6.0909,-6.1099,-6.1106,-6.0946,-6.0953,-6.0958,-6.0961,0,0,0,0,0,0,0,-6.0447,-6.0472,-6.0728,-6.0659,-6.066,-6.0641,-6.0657,-6.0782,-6.0817,-6.0722,-6.0718,-6.0737,-6.0854,-6.0899,-6.0912,-6.1108,-6.0946,-6.0956,-6.0963,-6.0967,-6.1453,-6.1459,0,0,0,0,0,0,-6.0437,-6.0464,-6.0724,-6.0733,-6.0542,-6.0652,-6.067,-6.0735,-6.0815,-6.0822,-6.0742,-6.0733,-6.0882,-6.0899,-6.0917,-6.1134,-6.0958,-6.0968,-6.0975,-6.1447,-6.1454,-6.1461,0,0,0,0,0,0,-6.043,-6.0461,-6.0717,-6.0597,-6.0629,-6.0665,-6.0739,-6.0741,-6.0786,-6.083,-6.0835,-6.0781,-6.0879,-6.0902,-6.1049,-6.1138,-6.0973,-6.0983,-6.1439,-6.1449,-6.1457,-6.157,0,0,0,0,0,0,-6.042,-6.0459,-6.053,-6.06,-6.0635,-6.085,-6.0744,-6.0748,-6.0806,-6.0796,-6.0868,-6.0874,-6.0876,-6.1033,-6.1061,-6.1151,-6.0992,-6.1431,-6.1444,-6.1454,-6.1558,-6.1582,-6.1602,0,0,0,0,0,-6.0408,-6.0555,-6.0534,-6.0566,-6.0725,-6.0855,-6.0875,-6.0876,-6.0813,-6.0884,-6.0912,-6.0872,-6.1124,-6.1049,-6.1079,-6.1174,-6.1426,-6.144,-6.1454,-6.1549,-6.1577,-6.1602,0,0,0,0,0,0,-6.0493,-6.0564,-6.0541,-6.0716,-6.078,-6.0843,-6.0932,-6.0906,-6.0988,-6.0975,-6.097,-6.0987,-6.114,-6.1172,-6.1086,-6.1353,-6.1265,-6.1286,-6.1327,-6.1355,-6.1376,-6.1365,-6.1001,0,0,0,0,0,-6.0532,-6.0634,-6.0689,-6.0837,-6.0871,-6.0896,-6.0953,-6.0948,-6.1013,-6.104,-6.1078,-6.1142,-6.1235,-6.1296,-6.1385,-6.1563,-6.1576,-6.1643,-6.1664,-6.1682,-6.17,-6.1795,-6.1824,-6.1506,-6.1506,-6.1506,0,0,-6.0614,-6.0665,-6.0729,-6.0856,-6.0905,-6.1008,-6.092,-6.1033,-6.1108,-6.1056,-6.1199,-6.1229,-6.1299,-6.1463,-6.1537,-6.1494,-6.1791,-6.17,-6.1714,-6.1722,-6.1812,-6.1842,-6.1869,-6.1516,-6.1514,-6.1513,0,0,-6.0815,-6.0865,-6.0993,-6.1045,-6.1121,-6.1137,-6.1168,-6.1236,-6.1255,-6.1398,-6.1361,-6.1449,-6.1611,-6.1662,-6.1709,-6.1929,-6.1895,-6.1958,-6.2072,-6.2164,-6.2189,-6.2211,-6.2289,-6.2317,-6.1976,-6.1976,-6.1976,0,-6.0906,-6.1063,-6.1062,-6.1179,-6.1235,-6.1194,-6.1323,-6.1372,-6.1472,-6.1511,-6.1462,-6.1663,-6.1708,-6.1882,-6.1936,-6.1976,-6.2009,-6.195,-6.2186,-6.2208,-6.2229,-6.2303,-6.2332,-6.1983,-6.1982,-6.1981,-6.1981,0,-6.117,-6.1279,-6.1373,-6.1474,-6.154,-6.1662,-6.1678,-6.1745,-6.1734,-6.1755,-6.19,-6.1952,-6.205,-6.209,-6.208,-6.2263,-6.2234,-6.2186,-6.2098,-6.2266,-6.2336,-6.2364,-6.1993,-6.1991,-6.1988,-6.1987,0,0,-6.143,-6.1529,-6.1563,-6.1608,-6.1689,-6.1771,-6.189,-6.1988,-6.2045,-6.2115,-6.2214,-6.2351,-6.2307,-6.2361,-6.2355,-6.2437,-6.2607,-6.2378,-6.238,-6.2418,-6.281,-6.2846,-6.2879,-6.2585,-6.259,-6.2595,-6.2804,0,-6.1637,-6.1848,-6.1851,-6.2044,-6.2144,-6.2106,-6.2209,-6.2269,-6.2291,-6.2376,-6.2399,-6.2497,-6.2432,-6.2464,-6.2543,-6.257,-6.2685,-6.2554,-6.2674,-6.2679,-6.2658,-6.2915,-6.2953,-6.3148,-6.2831,-6.2836,-6.2839,0,-6.1906,-6.1988,-6.2192,-6.2258,-6.2299,-6.2393,-6.2482,-6.2565,-6.2631,-6.264,-6.2701,-6.2683,-6.2802,-6.271,-6.2873,-6.2784,-6.2833,-6.2854,-6.2861,-6.2872,-6.2769,-6.2932,-6.3211,-6.324,-6.2882,-6.2878,-6.2875,0,-6.2074,-6.2234,-6.2377,-6.2416,-6.2497,-6.2563,-6.2599,-6.266,-6.2718,-6.2795,-6.2832,-6.2921,-6.297,-6.3039,-6.3044,-6.2977,-6.3208,-6.3117,-6.3218,-6.3218,-6.3268,-6.3264,-6.3558,-6.3301,-6.33,-6.33,-6.3299,0,-6.2305,-6.2431,-6.2453,-6.2541,-6.268,-6.2681,-6.2818,-6.2848,-6.2902,-6.2993,-6.2965,-6.3051,-6.3054,-6.3141,-6.3146,-6.3279,-6.3301,-6.3311,-6.3311,-6.3314,-6.3312,-6.3345,-6.3331,-6.3308,-6.3306,-6.3304,-6.3303,0,-6.2516,-6.2536,-6.2689,-6.2753,-6.2772,-6.2872,-6.2925,-6.3008,-6.3027,-6.3142,-6.3169,-6.3199,-6.3299,-6.3312,-6.343,-6.3433,-6.3593,-6.3579,-6.3572,-6.3569,-6.3669,-6.3659,-6.3993,-6.4036,-6.3752,-6.3755,-6.3757,0,-6.2661,-6.2758,-6.2833,-6.2893,-6.2933,-6.303,-6.3089,-6.3093,-6.3156,-6.3238,-6.331,-6.3409,-6.3487,-6.365,-6.368,-6.3769,-6.3756,-6.3867,-6.3769,-6.3769,-6.3757,-6.3751,-6.376,-6.3886,-6.3889,-6.3891,-6.3893,0,-6.2917,-6.2922,-6.3011,-6.3103,-6.3175,-6.3247,-6.3315,-6.3365,-6.3377,-6.3448,-6.3552,-6.3614,-6.3734,-6.3831,-6.3919,-6.3953,-6.3925,-6.3924,-6.3952,-6.3955,-6.3947,-6.3952,-6.3622,-6.3916,-6.3914,-6.3912,-6.3911,-6.391,-6.3099,-6.3183,-6.3249,-6.3348,-6.3399,-6.3463,-6.3544,-6.3573,-6.3661,-6.376,-6.3757,-6.387,-6.3932,-6.4047,-6.4088,-6.4176,-6.4139,-6.418,-6.419,-6.42,-6.4209,-6.3934,-6.4192,-6.4191,-6.419,-6.419,-6.4189,0,-6.3353,-6.3394,-6.3485,-6.3581,-6.3658,-6.3627,-6.37,-6.3766,-6.3867,-6.3928,-6.4007,-6.4125,-6.422,-6.4258,-6.4349,-6.4412,-6.4401,-6.4435,-6.443,-6.4439,-6.4237,-6.4204,-6.4443,-6.4443,-6.4443,-6.4443,-6.4442,-6.4442,-6.3494,-6.3634,-6.3647,-6.381,-6.3849,-6.3962,-6.4007,-6.4064,-6.4113,-6.4247,-6.4326,-6.4351,-6.4402,-6.4497,-6.4581,-6.459,-6.4624,-6.4665,-6.4667,-6.4478,-6.4453,-6.4428,-6.4397,-6.4672,-6.4673,-6.4861,-6.4863,-6.4864]}]]